Location: Mount Kobau Star Party
(49.1167°N, 119.7333°W)
Time: 04:04:59
(UTC-07:00)

BlueWalker 3 - Pass Details

Date: 04 March 2024
Orbit: 485 x 495 km, 53.2° (Epoch: 22 April)

Event Time Altitude Azimuth Distance (km) Brightness Sun altitude
Rises 18:04:44 0° 294° (WNW) 2,564 6.8 -3.5°
Reaches altitude 10° 18:06:55 10° 294° (WNW) 1,677 5.8 -3.9°
Maximum altitude 18:10:42 79° 208° (SSW) 499 2.0 -4.5°
Drops below altitude 10° 18:14:27 10° 121° (ESE) 1,663 4.1 -5.1°
Enters shadow 18:16:03 - 121° (ESE) 2,310 4.8 -5.4°
